Location: Newark
(44.1667°N, 8.2500°E)
Time: 11:27:25
(UTC+00:00)

S-56A Canister/Altair - Pass Details

Date: 18 December 2019
Orbit: 634 x 2498 km, 38.9° (Epoch: 23 January)

Event Time Altitude Azimuth Distance (km) Brightness Sun altitude
Rises 11:42:30 0° 278° (W) 5,845 12.0 22.3°
Reaches altitude 10° 11:46:11 10° 275° (W) 4,978 11.7 22.2°
Maximum altitude 12:00:30 59° 202° (SSW) 2,778 11.4 21.9°
Drops below altitude 10° 12:14:07 10° 129° (SE) 4,739 12.0 21.5°
Sets 12:17:32 0° 125° (SE) 5,556 12.2 21.3°
